Wind_Speed
29 32 32 30 30 29 26 25 25 25 26 26 26 26 26 24 23 22 22 21 23 23 22 23 23 23 25 27 29 33 33 32 37 37 39 34 28 30 36 34 34 34 29 28 31
34 32 31 32 31 30 31 29 28 28 28 28 28 27 27 25 23 22 23 22 21 20 19 20 19 20 21 22 24 27 28 31 31 35 38 37 35 35 39 39 36 37 35 31 33
38 39 37 34 32 33 32 32 31 30 30 29 30 29 29 27 23 26 21 21 20 19 18 17 16 17 17 18 20 21 22 25 22 28 33 32 40 40 40 42 41 39 38 35 36
39 43 43 41 38 34 34 34 34 33 32 32 32 33 31 28 24 24 22 21 20 18 16 14 13 13 12 13 14 14 19 19 15 19 28 24 30 33 39 45 42 40 40 39 40
39 40 44 45 44 42 38 35 36 35 35 35 36 35 34 30 26 25 25 24 21 18 15 13 12 10 10 11 10 10 10 9 8 15 22 21 24 26 31 41 39 36 35 41 45
42 39 49 42 48 45 44 42 39 39 38 38 38 38 36 33 29 28 27 26 23 20 19 17 15 14 13 12 11 13 9 10 10 15 16 18 25 25 26 34 32 33 34 38 39
41 39 46 45 49 49 48 46 44 43 42 41 41 41 40 37 35 31 29 27 26 24 22 20 18 16 16 16 16 16 14 12 17 18 18 21 21 22 32 29 26 31 33 35 34
43 41 41 39 44 48 50 53 50 48 46 45 45 43 44 40 38 34 33 29 28 27 25 23 20 18 16 16 15 15 16 16 17 18 19 21 23 24 28 30 31 31 31 31 32
45 40 40 42 44 48 52 54 56 54 51 50 49 47 45 44 39 39 36 33 32 30 28 26 23 21 19 18 17 16 16 14 17 20 20 21 23 25 29 31 32 32 34 32 31
52 47 45 47 51 54 56 58 61 59 57 54 53 49 47 43 42 41 37 37 35 33 31 29 27 23 21 19 19 19 19 18 15 18 18 18 21 23 28 29 31 32 33 34 35
53 51 52 52 53 57 61 63 62 64 62 56 58 52 49 47 45 42 41 39 38 35 34 32 29 28 25 23 22 22 22 22 19 20 20 20 20 21 24 26 28 30 31 33 33
54 54 54 55 57 59 60 60 59 61 64 59 59 56 52 49 48 44 43 41 39 39 37 34 32 29 28 28 26 25 24 23 22 21 22 21 18 21 22 23 23 27 28 29 30
56 58 58 59 57 53 49 49 52 59 56 60 58 58 56 50 50 46 44 43 41 42 38 38 35 33 31 29 29 28 26 25 25 24 23 22 19 19 21 22 22 24 28 27 26
57 61 61 59 54 49 45 44 47 51 61 54 56 58 58 51 51 46 43 42 42 42 42 41 36 34 35 32 30 29 27 28 26 24 23 24 25 23 24 22 22 25 24 25 26
57 60 58 57 55 49 43 43 40 42 55 49 59 58 57 52 53 48 43 41 38 42 44 41 37 38 37 33 31 29 28 29 27 25 24 25 29 22 23 23 24 23 24 25 25
56 57 55 54 54 48 42 42 36 34 46 46 52 56 54 51 54 50 44 41 41 42 40 40 39 39 36 36 33 31 29 28 27 24 24 26 28 21 20 21 24 22 22 25 26
56 55 54 51 50 45 44 40 37 43 34 46 44 52 48 50 52 48 45 44 41 40 41 39 40 40 37 36 33 31 29 28 28 24 23 23 22 19 17 20 22 21 21 23 24
58 56 54 49 45 45 42 42 41 36 27 44 42 43 44 49 48 47 47 46 43 42 44 41 39 38 37 36 34 32 31 29 29 26 24 21 19 17 15 17 20 21 21 22 23
63 58 53 50 46 43 42 48 42 34 38 35 47 49 36 41 45 43 43 44 41 39 39 40 41 38 36 35 34 32 32 29 29 28 25 21 17 15 15 12 15 18 21 23 24
57 61 52 49 47 44 47 49 46 36 30 36 44 42 45 36 37 40 40 37 36 37 39 39 38 36 36 36 35 33 32 30 29 29 26 23 19 16 18 15 15 15 18 22 24
42 56 49 49 49 51 55 44 41 39 36 31 37 50 39 50 43 39 39 35 33 32 34 36 35 34 36 34 32 34 33 33 33 31 29 26 23 20 19 20 19 17 19 22 25
29 38 45 45 51 57 50 42 39 39 37 32 38 45 45 41 44 44 42 38 35 33 34 33 35 34 35 34 34 35 34 34 34 31 30 29 25 25 25 23 20 20 21 22 26
27 32 34 37 45 52 50 48 42 39 34 35 38 41 50 47 41 36 41 40 37 36 35 34 36 33 34 34 33 33 32 34 35 33 30 30 26 29 28 26 21 22 24 26 28
25 35 34 33 40 47 48 44 38 35 35 29 31 41 43 48 54 45 40 38 39 37 36 34 34 33 31 31 32 32 33 35 36 32 30 28 29 30 32 28 24 27 29 31 32
22 28 27 27 37 40 47 44 41 37 36 36 32 34 38 45 51 54 45 41 40 39 38 37 35 33 32 32 33 34 34 35 33 32 33 28 30 32 33 30 27 29 31 32 34
26 26 23 27 45 35 43 39 42 38 42 42 38 24 38 38 47 50 49 45 42 42 39 39 37 36 35 36 35 33 32 30 31 32 31 33 27 35 32 32 31 33 35 35 38
25 24 26 25 31 42 42 40 32 37 38 36 27 32 34 40 44 49 53 53 48 46 44 44 41 40 40 38 36 35 27 30 30 29 33 32 32 31 33 34 35 36 35 36 37
Wind_Direction
284 286 283 280 282 282 276 274 270 269 269 263 259 257 251 246 242 241 241 244 245 246 248 249 249 250 251 250 248 250 250 248 245 245 252 253 246 244 252 251 248 248 242 239 243
282 278 278 280 277 274 273 269 267 268 265 263 257 251 243 236 234 238 239 238 241 245 246 248 252 254 256 258 257 256 255 251 251 252 250 254 249 244 245 247 246 248 248 242 244
285 281 276 271 269 271 270 267 264 263 262 259 253 245 240 234 231 236 234 236 237 241 244 247 251 257 260 262 263 264 261 259 258 258 256 252 250 246 249 249 247 248 251 249 244
283 282 280 276 271 263 264 264 261 258 255 255 250 244 238 235 230 238 236 234 235 237 238 244 249 256 261 264 269 271 269 270 264 263 265 264 259 257 250 250 249 250 252 252 247
280 282 274 276 275 271 263 260 260 255 252 250 248 245 239 236 231 230 234 235 233 229 231 235 239 245 253 264 272 281 281 287 287 262 272 274 270 267 260 255 253 249 249 252 249
273 267 260 264 263 266 266 262 255 254 250 248 247 245 243 238 234 232 231 234 231 229 229 234 239 240 246 254 268 261 271 271 288 273 280 277 266 268 267 263 259 253 247 247 253
271 263 256 257 258 262 262 257 257 251 249 246 244 246 243 240 235 236 233 233 231 231 232 235 238 244 246 254 255 254 261 264 275 275 270 268 273 267 263 267 264 259 251 249 249
286 282 261 259 254 256 256 261 255 249 246 244 243 241 244 239 236 233 233 233 234 234 234 236 237 240 243 246 248 251 258 269 273 273 273 272 268 268 266 262 255 254 255 251 247
287 278 271 266 263 256 250 253 253 252 243 242 239 239 239 238 236 234 232 233 234 235 234 235 234 239 239 245 250 254 263 272 274 277 279 279 275 269 264 262 259 256 253 250 246
288 285 280 277 274 266 257 247 248 245 246 240 239 236 235 234 234 234 233 235 235 234 233 233 234 238 239 244 249 257 259 264 270 273 277 288 286 280 268 268 261 253 254 251 249
286 282 281 278 272 266 260 255 246 247 238 240 236 233 231 232 230 233 232 234 235 234 233 232 235 238 241 246 249 255 262 268 269 271 275 276 285 290 273 268 265 257 251 249 249
279 275 271 268 265 264 262 261 257 243 240 235 235 232 228 229 230 230 233 234 235 236 233 233 237 239 240 246 251 258 262 267 270 271 274 276 278 277 280 270 271 264 254 252 251
271 268 265 262 263 265 267 263 255 245 246 229 233 229 231 226 228 227 234 234 236 237 235 236 236 238 239 245 253 258 265 270 272 273 274 274 272 276 276 271 262 261 260 255 251
266 264 264 263 260 263 263 261 257 249 245 232 229 232 227 225 229 226 230 234 235 236 235 235 235 238 240 244 249 257 261 266 270 272 273 278 276 271 275 272 264 254 256 257 254
263 261 261 260 260 258 260 258 258 254 250 245 227 229 227 223 225 226 228 233 233 236 234 237 236 237 239 243 249 252 257 264 267 268 277 286 284 270 264 266 267 260 249 250 255
258 259 259 257 257 259 257 255 254 253 247 247 232 226 226 226 225 225 225 230 230 233 234 236 237 237 236 240 244 249 254 260 263 270 277 289 285 281 268 260 263 263 257 253 252
256 253 255 253 253 256 253 252 247 242 243 241 237 230 225 224 227 228 223 227 231 235 235 237 236 238 234 237 241 246 249 253 256 266 282 295 289 284 262 255 258 257 255 254 254
254 248 248 249 249 249 246 246 241 228 247 240 236 229 224 221 224 226 224 227 228 230 233 235 236 236 233 236 239 241 246 247 256 265 278 295 301 286 268 257 260 262 259 259 259
249 248 242 245 244 244 244 243 229 230 232 242 232 230 210 218 220 223 227 230 231 233 235 236 235 233 233 234 235 239 244 244 252 263 274 290 300 293 286 269 261 264 264 264 264
244 246 239 239 239 241 242 238 229 228 234 240 228 224 213 200 208 217 220 221 222 226 227 228 228 227 230 230 233 238 238 241 249 259 268 282 294 297 287 278 270 268 270 271 271
245 242 236 235 232 225 238 233 227 227 239 219 223 223 207 209 207 205 207 212 217 219 222 222 224 222 227 231 233 235 237 241 249 256 267 276 284 290 286 285 282 282 281 281 280
237 234 235 236 229 231 232 230 229 228 236 227 221 229 211 199 206 213 217 220 223 219 222 222 222 221 225 228 230 233 236 243 250 256 262 273 280 285 286 287 292 292 289 285 281
203 229 234 234 229 230 229 231 229 227 219 229 224 225 226 212 208 208 204 208 208 209 217 222 226 225 227 231 234 239 242 246 251 256 263 271 278 278 279 281 290 288 287 287 289
230 231 230 233 228 227 227 231 229 221 227 218 220 228 224 222 219 217 211 207 211 214 221 225 229 231 229 232 233 236 241 245 252 259 264 269 271 273 276 280 283 285 288 290 293
234 221 225 240 219 221 224 225 222 210 223 225 220 215 230 223 222 219 216 213 213 216 221 225 229 232 234 235 235 237 242 247 255 259 264 265 268 270 271 277 280 283 287 290 292
231 219 229 235 209 212 213 225 227 230 227 224 229 217 219 227 224 225 218 216 217 217 219 224 228 230 232 235 239 241 244 251 256 261 266 266 269 265 273 272 277 279 284 292 293
212 204 227 205 210 212 211 213 219 224 221 229 230 226 222 219 219 226 226 223 220 219 220 224 228 231 235 236 241 245 251 253 257 262 264 270 266 271 276 281 285 291 295 294 293
Height
5746 5746 5745 5744 5745 5745 5745 5746 5747 5748 5749 5749 5749 5750 5751 5751 5752 5753 5754 5756 5757 5757 5757 5759 5760 5760 5761 5762 5763 5762 5766 5768 5767 5769 5769 5774 5780 5780 5778 5781 5784 5786 5792 5795 5794
5740 5738 5738 5738 5737 5737 5738 5739 5740 5742 5743 5744 5744 5744 5745 5746 5747 5748 5749 5750 5751 5752 5753 5754 5754 5754 5755 5756 5756 5757 5758 5758 5761 5762 5764 5766 5770 5772 5770 5772 5777 5778 5783 5788 5789
5734 5732 5730 5729 5729 5729 5730 5731 5733 5733 5736 5736 5738 5739 5740 5741 5744 5741 5744 5744 5746 5747 5748 5749 5748 5749 5749 5750 5750 5751 5752 5751 5755 5754 5754 5759 5758 5763 5764 5765 5768 5772 5774 5779 5783
5725 5724 5724 5722 5721 5720 5721 5722 5724 5726 5727 5730 5731 5733 5734 5736 5740 5738 5738 5739 5741 5742 5743 5743 5743 5744 5744 5745 5745 5746 5745 5746 5748 5748 5746 5751 5752 5753 5755 5753 5761 5765 5766 5769 5771
5716 5715 5713 5713 5713 5712 5712 5712 5714 5717 5719 5721 5724 5725 5728 5731 5733 5733 5733 5735 5736 5737 5737 5738 5739 5740 5740 5741 5742 5741 5742 5742 5743 5743 5742 5745 5746 5746 5748 5745 5752 5757 5759 5757 5760
5705 5704 5702 5702 5701 5701 5703 5704 5704 5706 5709 5712 5715 5718 5720 5724 5727 5726 5728 5730 5730 5731 5732 5734 5735 5736 5736 5737 5738 5738 5739 5739 5739 5740 5739 5740 5740 5742 5741 5738 5743 5748 5750 5751 5753
5690 5688 5688 5689 5689 5689 5689 5691 5694 5695 5698 5701 5704 5709 5712 5717 5719 5720 5722 5723 5725 5726 5727 5728 5729 5731 5732 5732 5733 5733 5734 5735 5735 5735 5735 5734 5735 5737 5734 5736 5737 5737 5740 5743 5747
5673 5673 5675 5674 5673 5676 5677 5678 5682 5684 5686 5689 5693 5697 5704 5707 5711 5714 5715 5716 5718 5719 5720 5722 5724 5726 5727 5727 5728 5728 5729 5730 5730 5729 5729 5729 5729 5729 5729 5729 5731 5731 5732 5736 5739
5658 5658 5657 5658 5659 5660 5663 5665 5667 5672 5673 5678 5681 5687 5692 5698 5702 5706 5708 5709 5710 5712 5714 5716 5718 5720 5722 5722 5724 5724 5724 5725 5726 5724 5724 5724 5723 5723 5722 5723 5724 5726 5727 5728 5731
5642 5642 5641 5640 5640 5640 5641 5646 5649 5653 5661 5664 5668 5676 5682 5687 5691 5695 5699 5701 5703 5705 5708 5710 5712 5714 5716 5717 5719 5719 5719 5720 5721 5719 5718 5717 5716 5716 5716 5715 5716 5719 5720 5721 5723
5626 5625 5625 5623 5622 5621 5623 5625 5633 5636 5643 5650 5655 5660 5668 5675 5679 5685 5689 5693 5695 5698 5700 5702 5706 5708 5710 5711 5713 5713 5714 5714 5716 5714 5713 5712 5710 5710 5709 5709 5709 5710 5712 5714 5716
5609 5608 5607 5607 5605 5605 5606 5607 5612 5617 5623 5634 5639 5647 5655 5662 5668 5673 5679 5684 5687 5690 5692 5697 5698 5702 5704 5705 5707 5707 5708 5709 5710 5708 5707 5707 5706 5704 5703 5703 5703 5703 5705 5706 5709
5591 5589 5588 5589 5590 5592 5592 5593 5595 5600 5602 5619 5626 5633 5639 5650 5655 5662 5667 5672 5677 5680 5685 5687 5692 5694 5697 5698 5700 5701 5702 5702 5702 5702 5701 5701 5701 5699 5698 5697 5697 5697 5697 5699 5702
5571 5570 5571 5571 5576 5580 5582 5581 5582 5585 5587 5605 5613 5619 5627 5639 5643 5651 5655 5662 5667 5672 5675 5677 5684 5686 5688 5691 5693 5695 5696 5694 5695 5695 5695 5694 5694 5694 5691 5691 5690 5690 5692 5693 5695
5551 5552 5553 5555 5559 5566 5571 5571 5571 5575 5573 5591 5597 5605 5614 5625 5633 5640 5645 5651 5657 5660 5665 5670 5675 5677 5680 5684 5686 5688 5688 5688 5688 5689 5689 5688 5685 5687 5686 5685 5683 5684 5686 5687 5688
5531 5534 5536 5541 5544 5554 5558 5559 5563 5564 5562 5575 5585 5594 5604 5613 5619 5629 5636 5642 5644 5649 5655 5660 5666 5667 5673 5675 5678 5680 5681 5682 5683 5683 5684 5682 5678 5679 5678 5678 5677 5678 5679 5681 5682
5512 5516 5520 5525 5533 5539 5545 5548 5550 5548 5560 5568 5577 5585 5593 5601 5609 5618 5625 5631 5635 5641 5646 5651 5656 5659 5663 5666 5670 5673 5674 5675 5677 5677 5678 5675 5672 5672 5671 5671 5671 5672 5673 5675 5676
5492 5496 5504 5512 5520 5527 5532 5535 5535 5542 5552 5558 5567 5572 5581 5589 5598 5606 5613 5618 5624 5628 5634 5641 5648 5651 5655 5659 5662 5665 5667 5669 5669 5672 5672 5670 5667 5665 5665 5666 5666 5667 5669 5670 5671
5472 5477 5489 5499 5507 5514 5518 5518 5525 5534 5545 5548 5555 5560 5570 5579 5588 5595 5604 5610 5615 5620 5628 5632 5636 5642 5646 5650 5654 5658 5660 5663 5663 5664 5666 5665 5663 5660 5658 5661 5661 5661 5662 5663 5664
5453 5460 5474 5486 5494 5501 5503 5507 5517 5527 5533 5538 5543 5553 5560 5569 5578 5586 5593 5600 5606 5611 5616 5622 5627 5633 5637 5641 5645 5649 5653 5655 5656 5657 5659 5659 5658 5655 5652 5654 5655 5656 5656 5656 5656
5437 5445 5463 5471 5480 5485 5484 5500 5511 5519 5522 5528 5536 5543 5550 5558 5567 5575 5582 5591 5597 5602 5607 5613 5619 5626 5629 5634 5638 5641 5644 5647 5649 5651 5652 5652 5653 5651 5649 5648 5649 5650 5650 5650 5649
5426 5435 5449 5456 5465 5470 5480 5492 5504 5509 5512 5519 5528 5534 5545 5549 5557 5565 5573 5581 5589 5594 5599 5604 5610 5616 5620 5624 5628 5632 5637 5639 5640 5644 5645 5646 5647 5645 5644 5644 5644 5644 5643 5643 5642
5420 5430 5439 5445 5451 5461 5475 5483 5492 5499 5505 5513 5520 5528 5535 5545 5549 5557 5564 5573 5579 5586 5590 5597 5602 5607 5612 5617 5621 5626 5630 5631 5632 5635 5639 5638 5641 5637 5637 5638 5640 5638 5637 5636 5635
5416 5423 5431 5438 5445 5455 5463 5473 5482 5491 5498 5505 5512 5518 5526 5535 5542 5548 5557 5564 5570 5578 5583 5588 5594 5600 5605 5609 5613 5617 5620 5622 5624 5629 5630 5632 5631 5631 5629 5631 5631 5630 5629 5628 5628
5410 5418 5427 5432 5439 5446 5456 5466 5474 5481 5490 5497 5505 5512 5519 5526 5532 5540 5548 5555 5561 5568 5574 5580 5586 5592 5596 5600 5604 5608 5612 5614 5618 5620 5621 5625 5623 5621 5622 5624 5624 5623 5621 5620 5619
5406 5413 5420 5426 5432 5438 5447 5458 5466 5475 5480 5489 5498 5504 5510 5515 5526 5534 5541 5546 5552 5558 5565 5571 5577 5582 5587 5590 5595 5600 5604 5608 5610 5611 5614 5613 5617 5612 5614 5615 5616 5615 5613 5612 5608
5403 5409 5416 5420 5425 5433 5442 5452 5460 5466 5474 5483 5491 5495 5501 5509 5515 5522 5529 5534 5542 5550 5557 5563 5568 5573 5577 5582 5587 5592 5599 5599 5602 5604 5603 5606 5605 5606 5605 5604 5603 5601 5601 5599 5597